FW4092 Weather Reports


Display with metric or nautical units.
time (UTC)temp
F
wind
direction
speed
MPH
gust
MPH
rain 1hr
in
rain 24hr
in
rain mn
in
humidity
%
barometer
mb
20190216131011 30 185 2.0 7.0 0.00 0.28 0.00 84 1004.3
20190216130509 30 160 1.0 2.0 0.00 0.28 0.00 84 1004.2
20190216130009 30 144 1.0 3.0 0.00 0.28 0.00 83 1004.2
20190216125510 30 143 1.0 3.0 0.00 0.28 0.00 83 1004.2
20190216125010 30 142 1.0 3.0 0.00 0.28 0.00 83 1004.1
20190216124509 30 146 2.0 4.0 0.00 0.28 0.00 83 1004.0
20190216124008 30 157 2.0 5.0 0.00 0.28 0.00 83 1004.0
20190216123508 30 138 1.0 5.0 0.00 0.28 0.00 82 1003.8
20190216123011 31 132 1.0 3.0 0.00 0.28 0.00 82 1003.8
20190216122509 31 132 1.0 3.0 0.00 0.28 0.00 81 1003.8
20190216122008 31 131 0.0 3.0 0.00 0.28 0.00 80 1003.8
20190216121508 31 150 1.0 6.0 0.00 0.28 0.00 81 1003.9
20190216121011 31 150 2.0 6.0 0.00 0.28 0.00 80 1004.0
20190216120508 31 125 1.0 4.0 0.00 0.28 0.00 80 1004.0
20190216120008 31 200 1.0 4.0 0.00 0.28 0.00 81 1003.9
20190216115508 31 203 1.0 4.0 0.00 0.28 0.00 81 1004.0
20190216115007 31 156 1.0 3.0 0.00 0.28 0.00 82 1003.9
20190216114508 31 142 1.0 3.0 0.00 0.28 0.00 82 1004.0
20190216114011 31 190 1.0 3.0 0.00 0.28 0.00 83 1004.0
20190216113507 31 229 1.0 3.0 0.00 0.28 0.00 82 1004.0
20190216113008 31 261 0.0 2.0 0.00 0.28 0.00 81 1004.1
20190216112508 31 263 1.0 3.0 0.00 0.28 0.00 81 1004.0
20190216112008 31 263 1.0 3.0 0.00 0.28 0.00 81 1004.0
20190216111508 31 135 1.0 3.0 0.00 0.28 0.00 81 1003.9
20190216111008 31 251 1.0 3.0 0.00 0.28 0.00 81 1003.9
20190216110512 31 135 2.0 4.0 0.00 0.28 0.00 81 1003.8
20190216110005 31 206 1.0 4.0 0.00 0.28 0.00 80 1003.8
20190216105505 32 214 1.0 4.0 0.00 0.28 0.00 79 1003.7
20190216105005 32 238 1.0 4.0 0.00 0.28 0.00 79 1003.7
20190216104506 32 302 0.0 3.0 0.00 0.28 0.00 79 1003.5
20190216104006 32 189 1.0 3.0 0.00 0.28 0.00 79 1003.4
20190216103506 32 172 1.0 3.0 0.00 0.28 0.00 79 1003.5
20190216103001 32 136 1.0 4.0 0.00 0.28 0.00 79 1003.5
20190216102506 32 142 2.0 4.0 0.00 0.28 0.00 79 1003.5
20190216102003 32 127 2.0 3.0 0.00 0.28 0.00 79 1003.5
20190216101503 32 140 1.0 3.0 0.00 0.28 0.00 79 1003.5
20190216100959 32 140 1.0 2.0 0.00 0.28 0.00 79 1003.3
20190216100459 32 140 1.0 2.0 0.00 0.28 0.00 78 1003.5
20190216095959 32 140 1.0 2.0 0.00 0.28 0.00 78 1003.4
20190216095459 32 140 0.0 2.0 0.00 0.28 0.00 78 1003.3
20190216094959 32 140 0.0 2.0 0.00 0.28 0.00 77 1003.3
20190216094500 33 140 1.0 2.0 0.00 0.28 0.00 77 1003.2
20190216093959 33 140 1.0 3.0 0.00 0.28 0.00 77 1003.1
20190216093500 33 196 1.0 3.0 0.00 0.28 0.00 76 1003.1
20190216092957 33 148 1.0 3.0 0.00 0.28 0.00 76 1003.1
20190216092457 33 140 1.0 2.0 0.00 0.28 0.00 76 1003.1
20190216091959 33 148 1.0 2.0 0.00 0.28 0.00 76 1003.2
20190216091457 33 148 1.0 4.0 0.00 0.28 0.00 76 1003.2
20190216090955 33 147 1.0 4.0 0.00 0.28 0.00 75 1003.1
20190216090455 33 156 2.0 4.0 0.00 0.28 0.00 75 1003.0
20190216085955 33 196 1.0 4.0 0.00 0.28 0.00 75 1003.0
20190216085455 33 196 1.0 5.0 0.00 0.28 0.00 75 1003.1
20190216084955 33 196 1.0 5.0 0.00 0.28 0.00 74 1003.0
20190216084455 33 244 2.0 7.0 0.00 0.28 0.00 74 1003.2
20190216083955 34 258 2.0 7.0 0.00 0.28 0.00 74 1003.1
20190216083455 34 205 3.0 7.0 0.00 0.28 0.00 73 1002.9
20190216082955 34 215 4.0 9.0 0.00 0.28 0.00 74 1002.9
20190216082454 34 196 4.0 9.0 0.00 0.28 0.00 73 1002.7
20190216081953 34 217 4.0 8.0 0.00 0.28 0.00 73 1002.7
20190216081453 34 190 4.0 9.0 0.00 0.28 0.00 73 1002.6
20190216080952 34 193 4.0 9.0 0.00 0.28 0.00 73 1002.5
20190216080453 34 188 4.0 9.0 0.00 0.28 0.00 72 1002.5
20190216075953 34 176 4.0 11.0 0.00 0.28 0.28 72 1002.5
20190216075451 34 171 5.0 11.0 0.00 0.28 0.28 72 1002.2
20190216074951 34 153 4.0 15.0 0.00 0.28 0.28 72 1002.2
20190216074451 34 202 4.0 15.0 0.00 0.28 0.28 72 1002.2
20190216073951 35 165 4.0 11.0 0.00 0.28 0.28 70 1002.2
20190216073450 35 178 5.0 11.0 0.00 0.28 0.28 69 1002.3
20190216072951 35 136 4.0 10.0 0.00 0.28 0.28 69 1002.2
20190216072451 35 169 5.0 11.0 0.00 0.28 0.28 69 1002.3
20190216071949 35 185 6.0 19.0 0.00 0.28 0.28 69 1002.3
20190216071449 35 185 6.0 19.0 0.00 0.28 0.28 68 1002.5
20190216070949 35 207 7.0 18.0 0.00 0.28 0.28 68 1002.5
20190216070448 35 200 6.0 18.0 0.00 0.28 0.28 68 1002.3
20190216065949 35 231 6.0 16.0 0.00 0.28 0.28 66 1002.2
20190216065449 36 210 7.0 16.0 0.00 0.28 0.28 65 1002.2
20190216064949 36 161 6.0 15.0 0.00 0.28 0.28 64 1002.1
20190216064449 36 204 5.0 14.0 0.00 0.28 0.28 64 1002.2
20190216063950 36 165 5.0 17.0 0.00 0.28 0.28 62 1002.2
20190216063449 36 177 6.0 17.0 0.00 0.28 0.28 62 1002.1
20190216062949 36 209 4.0 14.0 0.00 0.28 0.28 62 1002.1
20190216062447 36 156 3.0 11.0 0.00 0.28 0.28 61 1002.2
20190216061944 36 122 3.0 9.0 0.00 0.28 0.28 60 1002.2
20190216061448 36 140 3.0 9.0 0.00 0.28 0.28 61 1002.2
20190216060954 36 155 4.0 12.0 0.00 0.28 0.28 60 1002.2
20190216060454 35 159 3.0 12.0 0.00 0.28 0.28 61 1002.3
20190216055955 35 132 2.0 9.0 0.00 0.28 0.28 60 1002.2
20190216055455 35 150 2.0 9.0 0.00 0.28 0.28 60 1002.2
20190216054950 35 136 2.0 6.0 0.00 0.28 0.28 61 1002.2
20190216054450 35 146 2.0 5.0 0.00 0.28 0.28 60 1002.3
20190216053953 35 150 2.0 7.0 0.00 0.28 0.28 60 1002.3
20190216053500 35 174 2.0 8.0 0.00 0.28 0.28 59 1002.3
20190216053001 35 178 2.0 8.0 0.00 0.28 0.28 58 1002.3
20190216052456 35 169 3.0 9.0 0.00 0.28 0.28 58 1002.5
20190216051949 35 175 3.0 9.0 0.00 0.28 0.28 58 1002.3
20190216051454 35 177 2.0 8.0 0.00 0.28 0.28 60 1002.3
20190216050954 34 205 1.0 6.0 0.00 0.28 0.28 60 1002.2
20190216050450 35 140 0.0 2.0 0.00 0.28 0.28 60 1002.2
20190216045949 35 196 1.0 4.0 0.00 0.28 0.28 60 1002.1
20190216045453 35 198 2.0 5.0 0.00 0.28 0.28 60 1002.1
20190216044950 35 144 2.0 6.0 0.00 0.28 0.28 59 1002.0
20190216044447 36 173 2.0 6.0 0.00 0.28 0.28 59 1002.0
20190216043945 36 219 3.0 7.0 0.00 0.28 0.28 58 1002.0
20190216043444 36 171 3.0 7.0 0.00 0.28 0.28 58 1002.0
20190216042945 36 219 4.0 10.0 0.00 0.28 0.28 58 1002.1
20190216042451 36 167 5.0 10.0 0.00 0.28 0.28 58 1002.1
20190216041945 36 192 5.0 14.0 0.00 0.28 0.28 59 1002.1
20190216041444 36 193 4.0 14.0 0.00 0.28 0.28 60 1002.0
20190216040944 35 182 3.0 9.0 0.00 0.28 0.28 62 1002.1
20190216040445 35 188 1.0 7.0 0.00 0.28 0.28 63 1002.1
20190216035944 35 153 1.0 3.0 0.00 0.28 0.28 64 1002.1
20190216035443 34 151 1.0 3.0 0.00 0.28 0.28 65 1002.2
20190216034942 35 230 1.0 3.0 0.00 0.28 0.28 64 1002.3
20190216034441 35 140 1.0 3.0 0.00 0.28 0.28 64 1002.2
20190216033940 35 103 1.0 2.0 0.00 0.28 0.28 64 1002.2
20190216033441 35 96 1.0 3.0 0.00 0.28 0.28 65 1002.3
20190216032940 35 123 1.0 3.0 0.00 0.28 0.28 65 1002.3
20190216032441 34 112 1.0 2.0 0.00 0.28 0.28 66 1002.5
20190216031940 35 112 0.0 2.0 0.00 0.28 0.28 66 1002.5
20190216031440 35 109 0.0 1.0 0.00 0.28 0.28 64 1002.5
20190216030941 35 109 0.0 1.0 0.00 0.28 0.28 64 1002.6
20190216030440 35 109 1.0 3.0 0.00 0.28 0.28 64 1002.5
20190216025940 36 109 1.0 3.0 0.00 0.28 0.28 64 1002.6
20190216025438 36 70 1.0 3.0 0.00 0.28 0.28 63 1002.3
20190216024938 36 138 1.0 2.0 0.00 0.28 0.28 63 1002.5
20190216024438 37 139 1.0 3.0 0.00 0.28 0.28 62 1002.6
20190216023938 37 181 2.0 4.0 0.00 0.28 0.28 62 1002.6
20190216023438 37 196 2.0 8.0 0.00 0.28 0.28 61 1002.6
20190216022939 37 209 2.0 8.0 0.00 0.28 0.28 61 1002.5
20190216022438 37 184 2.0 9.0 0.00 0.28 0.28 60 1002.6
20190216021944 37 190 3.0 9.0 0.00 0.28 0.28 59 1002.6
20190216021501 38 167 4.0 10.0 0.00 0.28 0.28 59 1002.6
20190216020940 38 209 5.0 10.0 0.00 0.28 0.28 57 1002.6
20190216020439 38 205 5.0 10.0 0.00 0.28 0.28 57 1002.5
20190216015939 38 201 6.0 11.0 0.00 0.28 0.28 56 1002.3
20190216015437 38 189 7.0 15.0 0.00 0.28 0.28 56 1002.3
20190216014934 38 158 6.0 14.0 0.00 0.28 0.28 56 1002.2
20190216014434 38 202 6.0 15.0 0.00 0.28 0.28 56 1002.1
20190216013934 38 233 6.0 15.0 0.00 0.28 0.28 55 1002.1
20190216013434 38 196 7.0 14.0 0.00 0.29 0.28 55 1002.2
20190216012935 39 220 8.0 14.0 0.01 0.29 0.28 54 1002.1
20190216012434 39 231 8.0 16.0 0.01 0.29 0.28 53 1002.1
20190216011944 38 213 7.0 18.0 0.01 0.29 0.28 54 1002.0
20190216011433 39 198 7.0 18.0 0.01 0.29 0.28 53 1001.9
20190216010935 39 179 8.0 19.0 0.01 0.29 0.28 52 1001.9
20190216010431 39 222 9.0 19.0 0.01 0.29 0.28 52 1001.8
20190216005932 39 222 7.0 18.0 0.01 0.29 0.28 51 1001.9
20190216005440 39 228 6.0 13.0 0.01 0.29 0.28 51 1001.9
20190216004944 39 184 6.0 13.0 0.01 0.30 0.28 52 1001.9
20190216004432 39 180 5.0 12.0 0.02 0.30 0.28 52 1001.9
20190216003932 39 216 5.0 12.0 0.02 0.30 0.28 52 1002.0
20190216003432 39 170 6.0 12.0 0.02 0.30 0.28 51 1001.9
20190216002931 39 183 6.0 12.0 0.01 0.30 0.27 50 1002.0
20190216002431 39 210 5.0 12.0 0.01 0.30 0.27 50 1002.0
20190216001932 39 236 5.0 9.0 0.02 0.30 0.27 51 1001.9
20190216001432 39 184 5.0 12.0 0.02 0.31 0.27 51 1001.9
20190216000932 39 214 5.0 12.0 0.02 0.31 0.27 53 1001.9
20190216000432 39 234 5.0 11.0 0.02 0.31 0.27 55 1001.9
20190215235932 39 223 5.0 11.0 0.03 0.31 0.27 57 1001.9
20190215235431 39 168 5.0 13.0 0.03 0.31 0.27 58 1001.9
20190215234932 40 225 4.0 13.0 0.03 0.31 0.27 56 1001.9
20190215234432 40 215 3.0 8.0 0.03 0.30 0.26 57 1002.0
20190215233932 40 196 3.0 7.0 0.03 0.30 0.26 56 1001.9
20190215233432 40 214 2.0 6.0 0.03 0.30 0.26 56 1001.8
20190215232931 40 198 2.0 5.0 0.03 0.30 0.26 57 1001.9
20190215232432 40 190 3.0 7.0 0.03 0.30 0.26 56 1001.9
20190215231932 40 196 3.0 7.0 0.02 0.29 0.25 56 1001.8
20190215231431 40 199 3.0 6.0 0.02 0.29 0.25 55 1001.8
20190215230939 41 191 3.0 6.0 0.02 0.29 0.25 53 1001.7
20190215230431 41 184 4.0 10.0 0.02 0.29 0.25 53 1001.8
20190215225932 42 209 4.0 10.0 0.01 0.28 0.24 49 1001.7
20190215225431 43 221 3.0 10.0 0.01 0.28 0.24 44 1001.6
20190215224931 43 275 2.0 5.0 0.02 0.28 0.24 43 1001.5
20190215224431 43 213 1.0 4.0 0.01 0.27 0.23 42 1001.5
20190215223930 44 234 1.0 3.0 0.01 0.27 0.23 44 1001.5
20190215223430 44 329 1.0 4.0 0.02 0.27 0.23 42 1001.5
20190215222927 44 328 1.0 4.0 0.02 0.27 0.23 44 1001.4
20190215222428 44 265 2.0 6.0 0.03 0.27 0.23 45 1001.5
20190215221927 44 115 1.0 6.0 0.03 0.27 0.23 48 1001.5
20190215221429 44 151 1.0 3.0 0.04 0.27 0.23 46 1001.6
20190215220927 44 253 2.0 4.0 0.05 0.27 0.23 47 1001.5
20190215220427 44 220 2.0 6.0 0.05 0.27 0.23 47 1001.5
20190215215927 44 225 1.0 6.0 0.06 0.27 0.23 46 1001.4
20190215215428 44 214 1.0 4.0 0.07 0.27 0.23 49 1001.4
20190215214927 45 214 1.0 4.0 0.07 0.26 0.22 46 1001.4
20190215214427 45 78 1.0 3.0 0.08 0.26 0.22 47 1001.4
20190215213925 45 22 2.0 4.0 0.08 0.26 0.22 47 1001.4
20190215213426 45 198 2.0 6.0 0.08 0.25 0.21 47 1001.4
20190215212925 44 206 3.0 6.0 0.08 0.25 0.21 48 1001.4
20190215212425 44 241 3.0 9.0 0.08 0.24 0.20 48 1001.5
20190215211925 44 70 3.0 9.0 0.09 0.24 0.20 47 1001.4
20190215211424 44 317 2.0 7.0 0.08 0.23 0.19 46 1001.4
20190215210924 44 148 3.0 7.0 0.08 0.22 0.18 49 1001.3
20190215210423 44 156 3.0 6.0 0.08 0.22 0.18 47 1001.3
20190215205926 45 215 2.0 6.0 0.08 0.21 0.17 44 1001.4
20190215205429 45 140 2.0 6.0 0.07 0.20 0.16 46 1001.5
20190215204926 45 112 1.0 4.0 0.07 0.19 0.16 48 1001.4
20190215204424 44 103 1.0 3.0 0.06 0.18 0.14 50 1001.3
20190215203923 43 40 1.0 4.0 0.07 0.18 0.14 52 1001.4
20190215203424 44 350 2.0 4.0 0.06 0.17 0.13 50 1001.4
20190215202923 44 310 2.0 4.0 0.07 0.17 0.13 48 1001.5
20190215202421 44 268 1.0 4.0 0.06 0.16 0.12 49 1001.5
20190215201922 44 44 1.0 2.0 0.06 0.15 0.11 52 1001.5
20190215201427 43 40 1.0 3.0 0.06 0.15 0.11 53 1001.6
20190215200931 42 40 1.0 3.0 0.05 0.14 0.10 55 1001.6
20190215200421 41 32 1.0 3.0 0.05 0.13 0.10 55 1001.6
20190215195921 41 43 1.0 2.0 0.05 0.13 0.09 58 1001.5
20190215195419 40 44 1.0 3.0 0.05 0.13 0.09 61 1001.5
20190215194919 40 49 2.0 4.0 0.05 0.12 0.08 62 1001.6
20190215194419 40 334 2.0 4.0 0.05 0.12 0.08 66 1001.6
20190215193919 40 329 2.0 5.0 0.05 0.11 0.07 63 1001.7
20190215193420 40 309 2.0 5.0 0.05 0.11 0.07 66 1001.7
20190215192917 40 281 2.0 5.0 0.04 0.10 0.06 63 1001.5
20190215192417 40 309 3.0 5.0 0.04 0.10 0.06 65 1001.5
20190215191917 40 259 3.0 8.0 0.04 0.09 0.06 63 1001.4
20190215191417 40 283 3.0 8.0 0.04 0.09 0.05 67 1001.4
20190215190917 40 209 2.0 6.0 0.04 0.09 0.05 59 1001.3
20190215190417 40 346 2.0 4.0 0.03 0.08 0.04 69 1001.3
20190215185917 40 305 1.0 4.0 0.04 0.08 0.04 70 1001.1
20190215185416 39 324 1.0 3.0 0.03 0.07 0.04 72 1001.0
20190215184915 38 248 1.0 3.0 0.03 0.07 0.03 73 1001.1
20190215184415 37 198 1.0 3.0 0.03 0.07 0.03 71 1000.9
20190215183913 37 290 1.0 3.0 0.02 0.06 0.02 73 1001.0
20190215183411 38 290 1.0 5.0 0.02 0.06 0.02 72 1000.9
20190215182911 39 309 2.0 5.0 0.02 0.06 0.02 70 1000.9
20190215182411 40 41 2.0 4.0 0.02 0.06 0.02 69 1000.8
20190215181911 40 325 3.0 8.0 0.01 0.05 0.01 70 1000.8
20190215181411 39 209 3.0 8.0 0.01 0.05 0.01 70 1000.6
20190215180911 38 238 2.0 7.0 0.01 0.05 0.01 70 1000.6
20190215180411 37 214 2.0 7.0 0.01 0.05 0.01 73 1000.6
20190215175910 37 265 3.0 7.0 0.00 0.04 0.00 71 1000.5
20190215175418 37 202 3.0 9.0 0.00 0.04 0.00 69 1000.6
20190215174910 38 194 3.0 9.0 0.00 0.04 0.00 70 1000.5
20190215174411 38 162 3.0 6.0 0.00 0.04 0.00 69 1000.4
20190215173911 38 118 2.0 6.0 0.00 0.04 0.00 70 1000.3
20190215173411 38 141 2.0 5.0 0.00 0.04 0.00 72 1000.1
20190215172911 37 128 2.0 7.0 0.00 0.04 0.00 72 1000.1
20190215172409 37 138 2.0 7.0 0.00 0.04 0.00 70 999.9
20190215171918 37 194 3.0 8.0 0.00 0.04 0.00 72 999.9
20190215171419 37 165 3.0 8.0 0.00 0.04 0.00 72 999.8
20190215170909 36 193 3.0 8.0 0.00 0.04 0.00 74 999.8
20190215170419 35 149 3.0 8.0 0.00 0.04 0.00 75 999.7
20190215165908 35 190 3.0 8.0 0.00 0.04 0.00 76 999.7
20190215165408 35 217 3.0 7.0 0.00 0.04 0.00 77 999.7
20190215164912 35 200 3.0 9.0 0.00 0.04 0.00 76 999.6
20190215164408 34 167 3.0 9.0 0.00 0.04 0.00 77 999.4
20190215163908 34 192 3.0 8.0 0.00 0.04 0.00 77 999.4
20190215163411 35 188 3.0 8.0 0.00 0.04 0.00 77 999.4
20190215162908 35 211 3.0 8.0 0.00 0.04 0.00 77 999.3
20190215162408 34 172 2.0 8.0 0.00 0.04 0.00 79 999.1
20190215161909 33 192 2.0 7.0 0.00 0.04 0.00 81 999.0
20190215161408 32 224 1.0 7.0 0.00 0.04 0.00 82 998.9
20190215160909 32 196 2.0 7.0 0.00 0.04 0.00 83 998.8
20190215160409 31 155 2.0 8.0 0.00 0.04 0.00 84 998.6
20190215155909 31 159 2.0 8.0 0.00 0.04 0.00 85 998.5
20190215155408 30 147 2.0 5.0 0.00 0.04 0.00 85 998.4
20190215154908 30 222 2.0 5.0 0.00 0.04 0.00 85 998.4
20190215154408 30 146 2.0 5.0 0.00 0.04 0.00 85 998.2
20190215153908 30 181 2.0 5.0 0.00 0.04 0.00 85 998.3
20190215153409 30 137 2.0 5.0 0.00 0.04 0.00 86 998.1
20190215152909 30 151 1.0 5.0 0.00 0.04 0.00 86 998.1
20190215152409 29 162 1.0 5.0 0.00 0.04 0.00 87 998.1
20190215151908 29 153 2.0 4.0 0.00 0.04 0.00 87 998.1
20190215151408 29 183 1.0 6.0 0.00 0.04 0.00 87 998.0
20190215150908 29 190 1.0 6.0 0.00 0.04 0.00 87 997.8
20190215150408 29 200 1.0 5.0 0.00 0.04 0.00 87 997.8
20190215145908 30 166 2.0 5.0 0.00 0.04 0.00 87 997.6
20190215145406 30 162 2.0 6.0 0.00 0.04 0.00 87 997.4
20190215144909 30 183 3.0 8.0 0.00 0.04 0.00 86 997.4
20190215144650 30 180 4.0 9.0 0.00 0.04 0.00 87 997.3
20190215144425 30 180 4.0 9.0 0.00 0.04 0.00 87 997.3
20190215143907 29 205 4.0 9.0 0.00 0.04 0.00 88 997.3
20190215143406 29 214 3.0 9.0 0.00 0.04 0.00 88 997.3
20190215142906 28 192 2.0 7.0 0.00 0.04 0.00 88 997.2
20190215142406 28 183 2.0 5.0 0.00 0.04 0.00 87 997.2
20190215141906 28 142 2.0 4.0 0.00 0.04 0.00 86 997.1
20190215141409 28 150 1.0 3.0 0.00 0.04 0.00 86 997.0
20190215140906 29 148 1.0 3.0 0.00 0.04 0.00 87 997.1
20190215140404 29 192 1.0 3.0 0.00 0.04 0.00 87 997.0
20190215135904 29 159 1.0 5.0 0.00 0.04 0.00 86 997.0
20190215135404 29 200 2.0 5.0 0.00 0.04 0.00 87 996.9
20190215134904 29 207 2.0 4.0 0.00 0.04 0.00 86 996.8
20190215134404 29 206 2.0 4.0 0.00 0.04 0.00 87 996.8
20190215133904 29 195 1.0 4.0 0.00 0.04 0.00 87 996.8
20190215133405 29 189 1.0 4.0 0.00 0.04 0.00 87 996.8
20190215132905 28 176 1.0 5.0 0.00 0.04 0.00 87 996.7
20190215132404 28 148 1.0 5.0 0.00 0.04 0.00 88 996.6
20190215131904 28 152 1.0 5.0 0.00 0.04 0.00 89 996.5